Regional Weather Roundup
Issued by NWS

Home | Current Version | Previous Version | Graphics & Text | Print | Product List | Glossary On
Versions: 1 2 3 4 5 6 7 8 9 10 11 12 13 14 15 16 17 18 19 20 21 22 23 24 25 26 27 28 29 30 31 32 33 34 35 36 37 38 39 40 41 42 43 44 45 46 47 48 49 50
000
ASUS43 KDTX 300510
RWRMI
MICHIGAN HOURLY REGIONAL WEATHER ROUNDUP
NATIONAL WEATHER SERVICE DETROIT/PONTIAC MI
1200 AM EST FRI JAN 30 2015

NOTE: "FAIR" INDICATES FEW OR NO CLOUDS BELOW 12,000 FEET WITH NO
SIGNIFICANT WEATHER AND/OR OBSTRUCTION TO VISIBILITY.

MIZ047>049-052>055-059>063-066>070-074>076-081>083-300600-
SOUTHEAST LOWER MICHIGAN

CITY           SKY/WX    TMP DP  RH WIND       PRES   REMARKS
ADRIAN         LGT SNOW  29  24  82 N9        30.11R
ALMA           CLOUDY    23  15  69 NW13G25   30.15R
ANN ARBOR      CLOUDY    28  19  69 N16G22    30.08R
BAD AXE        LGT SNOW  23  18  82 NW15      30.05R
DETROIT CITY   CLOUDY    31  18  58 NW15G31   30.05R
DETROIT        FLURRIES  29  19  66 NW17G26   30.08R
FLINT          CLOUDY    25  14  63 NW22G38   30.10R
GROSSE ILE     CLOUDY    30  21  69 NW18G29   30.06R
HILLSDALE      LGT SNOW  28  26  89 N12G21    30.09R
HOWELL         CLOUDY    24  15  69 NW16G28   30.10R

CITY           SKY/WX    TMP DP  RH WIND       PRES   REMARKS
JACKSON        FLURRIES  26  19  74 N15G31    30.11R
LAMBERTVILLE   CLOUDY    32  23  69 NW7       30.09R
LANSING        LGT SNOW  23  16  74 NW17G28   30.16R
LAPEER         NOT AVBL
MASON          CLOUDY    25  16  68 NW14G28   30.12R
MONROE         CLOUDY    30  19  64 N16G25    30.07R
MT. CLEMENS    MIX PCPN  28  19  68 NW18G26   30.02R
PONTIAC        FLURRIES  25  17  72 NW17G28   30.05R
PORT HOPE        N/A     23  18  81 NW17G28   30.02R
PORT HURON     CLOUDY    27  21  80 NW17G24   30.02R
TRI CITIES     CLOUDY    24  13  62 NW20G29   30.11R
YPSILANTI      CLOUDY    31  19  61 NW18G31   30.08R
$$
MIZ043>046-050>051-056>058-064>065-071>073-077>080-300600-
SOUTHWEST LOWER MICHIGAN

CITY           SKY/WX    TMP DP  RH WIND       PRES   REMARKS
BATTLE CREEK   LGT SNOW  28  21  75 N17G24    30.15R
BENTON HARBOR  FLURRIES  29  23  78 N12G23    30.23R
BIG RAPIDS     LGT SNOW  21  17  83 NW13G20   30.17R
COLDWATER      FLURRIES  29  24  81 NW17G25   30.13R
HOLLAND        CLOUDY    27  13  55 N10G24    30.24R
GRAND RAPIDS   FLURRIES  23  13  65 NW17G28   30.21R
KALAMAZOO      LGT SNOW  26  20  77 NW25G35   30.19R VSB 1
MARSHALL       LGT SNOW  27  21  79 N10G17    30.13R
MUSKEGON       FLURRIES  24  14  65 N18G25    30.26R
$$
MIZ016>042-300600-
NORTHERN LOWER MICHIGAN

CITY           SKY/WX    TMP DP  RH WIND       PRES   REMARKS
ALPENA         LGT SNOW  15  10  80 NW18G29   30.10R VSB 3/4 WCI  -2
BEAVER ISLAND  CLOUDY    15   8  72 N5G16     30.25R
BELLAIRE       FLURRIES  18  11  74 N9G20     30.23R
CADILLAC       LGT SNOW  19  12  76 NW20G30   30.14R
CHARLEVOIX     FLURRIES  16  10  74 N20G30    30.26R WCI   0
FRANKFORT      FLURRIES  22  14  72 N15G25    30.26R
GAYLORD        CLOUDY    12   6  77 N10G23    30.12R WCI  -1
GRAYLING       LGT SNOW  16  10  78 NW21G32   30.13R WCI  -2
HARBOR SPRINGS CLOUDY    14   6  70 NW9G22    30.21R
HOUGHTON LAKE  LGT SNOW  17  10  74 NW15      30.11R
MANISTEE       CLOUDY    23  12  63 N18G26    30.26R
OSCODA         LGT SNOW  20  15  78 NW20G35   30.04R
PELLSTON       LGT SNOW  13   7  77 N18G33    30.21R WCI  -4
TRAVERSE CITY  LGT SNOW  21  12  68 N18G31    30.22R
$$
MIZ007>008-015-300600-
EASTERN UPPER MICHIGAN

CITY           SKY/WX    TMP DP  RH WIND       PRES   REMARKS
KINROSS        CLEAR      5   1  85 N22G28    30.18R WCI -16
MACKINAC ISLAN CLOUDY    11   5  76 N17G31    30.20R WCI  -6
NEWBERRY       LGT SNOW  11   9  90 NW9       30.23R
S. S. MARIE    CLEAR      5  -5  63 NW13      30.21R WCI -12
$$
MIZ004>006-011>014-085-300600-
CENTRAL UPPER MICHIGAN

CITY           SKY/WX    TMP DP  RH WIND       PRES   REMARKS
MANISTIQUE     CLOUDY    16  11  80 N10G17    30.26R
ESCANABA       CLOUDY    18   3  53 NW10G20   30.33R
MENOMINEE      MOCLDY    18   5  57 N10       30.34R
SAWYER-GWINN   LGT SNOW  13   8  79 N13G23    30.29R WCI  -2
$$
MIZ001>003-009>011-084-300600-
WESTERN UPPER MICHIGAN

CITY           SKY/WX    TMP DP  RH WIND       PRES   REMARKS
IRON MOUNTAIN  MOCLDY    15   2  56 NW13      30.31R
HOUGHTON       LGT SNOW  11   5  77 N16G23    30.36R WCI  -6
COPPER HARBOR    N/A     15  10  80 NE23G35   30.38R WCI  -3
IRONWOOD       CLOUDY    14   7  73 N12G18    30.38R
$$

ABBREVIATIONS USED IN REMARKS
   TC - TEMPERATURE IN CELSIUS
  WCI - WIND CHILL INDEX
   HX - HEAT INDEX
  VSB - VISIBILITY



USA.gov is the U.S. government's official web portal to all federal, state and local government web resources and services.